map of CUN home
Great Circle Mapper logo
CUN - Airport
Location
City:  Cancún, Quintana Roo, México
Name:Cancún International Airport
ICAO / IATA:MMUN / CUN

Details
Type:Airport (Aerodrome, Airfield)
Use:Public/Civil, International (customs port of entry)
Latitude:21°02'12"N (21.036528)
Longitude:86°52'37"W (-86.877082)
Datum:WGS 1984
Elevation:20 ft (6 m)
Runways:1
Longest:11483 × 197 ft (3500 × 60 m), paved

Time
Time Zone:UTC-6 (DST-5)
Local Time:

Weather
METAR:MMUN 231644Z 36005KT 7SM BKN015TCU 30/24 A2980 RMK 8/200 CI
TAF:MMUN 231724Z 2318/2424 34010KT P6SM BKN015 TX31/2318Z TN23/2412Z
TEMPO 2321/2324 5SM TSRA BKN015CB BKN070
FM240000 34008KT 5SM RA BKN015 BKN070
FM240600 35006KT P6SM BKN015 BKN070
TEMPO 2410/2414 5SM RA

Related Locations
Nearby:
Farthest:CCK: 11776 mi / 18952 km
West Island (Pulau Panjang) [Cocos (Keeling) Islands], CC

Find:

   beyond  
but within

Other Information
Maps:
NOTAMs:
Links:
Sources:

  
flag of México   

Sectional Chart

Flight Planning
at skyvector.com

Satellite Image

Google Maps Satellite View

 

Copyright © 2004-2014 Karl L. Swartz. All rights reserved.
The Great Circle Mapper name and logo are trademarks of the Great Circle Mapper.
All other trademarks mentioned herein belong to their respective owners.
Please see credits for attibutions and further copyright information.

  Follow gcmap on Facebook Follow gcmap on Twitter

hCard Microformat

Geo Microformat